Hourly Weather Al-Ladikija

Today, 26 November, Thursday

Time Temperature Precipitation Wind Pressure Humidity
00:00 +13°C° 0.3 mm 8 mps 754 mmHg 70%
01:00 +13°C° 0.3 mm 8 mps 754 mmHg 71%
02:00 +13°C° 0 mm 8 mps 754 mmHg 71%
03:00 +13°C° 0.1 mm 8 mps 754 mmHg 75%
04:00 +13°C° 0.1 mm 8 mps 754 mmHg 78%
05:00 +13°C° 0.1 mm 8 mps 754 mmHg 81%
06:00 +13°C° 0.3 mm 8 mps 755 mmHg 81%
07:00 +13°C° 0.3 mm 9 mps 755 mmHg 81%
08:00 +13°C° 0.3 mm 9 mps 755 mmHg 81%
09:00 +13°C° 0.1 mm 9 mps 756 mmHg 79%
10:00 +13°C° 0.1 mm 9 mps 756 mmHg 76%
11:00 +15°C° 0.1 mm 8 mps 756 mmHg 74%
12:00 +15°C° 0 mm 8 mps 756 mmHg 73%
13:00 +15°C° 0 mm 7 mps 756 mmHg 72%
14:00 +15°C° 0 mm 6 mps 756 mmHg 71%
15:00 +15°C° 0 mm 6 mps 756 mmHg 73%
16:00 +14°C° 0 mm 5 mps 757 mmHg 74%
17:00 +14°C° 0 mm 5 mps 757 mmHg 76%
18:00 +14°C° 0 mm 5 mps 758 mmHg 77%
19:00 +13°C° 0 mm 5 mps 758 mmHg 77%
20:00 +13°C° 0 mm 5 mps 758 mmHg 78%
21:00 +13°C° 0 mm 5 mps 758 mmHg 78%
22:00 +13°C° 0 mm 4 mps 759 mmHg 78%
23:00 +12°C° 0 mm 4 mps 759 mmHg 78%

Tomorrow, 27 November, Friday

Time Temperature Precipitation Wind Pressure Humidity
00:00 +12°C° 0 mm 3 mps 759 mmHg 78%
01:00 +12°C° 0 mm 3 mps 759 mmHg 78%
02:00 +12°C° 0 mm 3 mps 759 mmHg 78%
03:00 +12°C° 0 mm 3 mps 759 mmHg 78%
04:00 +12°C° 0 mm 3 mps 760 mmHg 77%
05:00 +12°C° 0 mm 3 mps 760 mmHg 77%
06:00 +13°C° 0 mm 3 mps 760 mmHg 75%
07:00 +13°C° 0 mm 4 mps 760 mmHg 73%
08:00 +14°C° 0 mm 4 mps 761 mmHg 72%
09:00 +15°C° 0 mm 4 mps 761 mmHg 67%
10:00 +17°C° 0 mm 4 mps 761 mmHg 62%
11:00 +19°C° 0 mm 4 mps 761 mmHg 57%
12:00 +19°C° 0 mm 4 mps 761 mmHg 56%
13:00 +19°C° 0 mm 4 mps 760 mmHg 55%
14:00 +19°C° 0 mm 4 mps 760 mmHg 54%
15:00 +18°C° 0 mm 4 mps 760 mmHg 56%
16:00 +16°C° 0 mm 5 mps 761 mmHg 57%
17:00 +15°C° 0 mm 5 mps 761 mmHg 58%
18:00 +15°C° 0 mm 5 mps 761 mmHg 54%
19:00 +15°C° 0 mm 5 mps 762 mmHg 50%
20:00 +15°C° 0 mm 6 mps 762 mmHg 47%
21:00 +14°C° 0 mm 5 mps 762 mmHg 47%
22:00 +14°C° 0 mm 5 mps 762 mmHg 48%
23:00 +13°C° 0 mm 4 mps 762 mmHg 48%

Day after tomorrow, 28 November, Saturday

Time Temperature Precipitation Wind Pressure Humidity
00:00 +13°C° 0 mm 4 mps 762 mmHg 51%
01:00 +13°C° 0 mm 5 mps 762 mmHg 53%
02:00 +12°C° 0 mm 5 mps 762 mmHg 56%
03:00 +12°C° 0 mm 5 mps 762 mmHg 59%
04:00 +12°C° 0 mm 5 mps 762 mmHg 62%
05:00 +11°C° 0 mm 6 mps 762 mmHg 65%
06:00 +11°C° 0 mm 6 mps 762 mmHg 66%
07:00 +13°C° 0 mm 6 mps 762 mmHg 68%
08:00 +13°C° 0 mm 6 mps 762 mmHg 69%
09:00 +15°C° 0 mm 6 mps 762 mmHg 67%
10:00 +16°C° 0 mm 6 mps 762 mmHg 64%
11:00 +17°C° 0 mm 5 mps 762 mmHg 61%
12:00 +17°C° 0 mm 5 mps 762 mmHg 61%
13:00 +17°C° 0 mm 5 mps 761 mmHg 60%
14:00 +19°C° 0 mm 4 mps 761 mmHg 59%
15:00 +18°C° 0 mm 4 mps 761 mmHg 63%
16:00 +17°C° 0 mm 4 mps 761 mmHg 67%
17:00 +15°C° 0 mm 4 mps 762 mmHg 71%
18:00 +14°C° 0 mm 4 mps 762 mmHg 72%
19:00 +14°C° 0 mm 4 mps 762 mmHg 73%
20:00 +14°C° 0 mm 4 mps 762 mmHg 74%
21:00 +14°C° 0 mm 4 mps 763 mmHg 74%
22:00 +13°C° 0 mm 4 mps 763 mmHg 75%
23:00 +13°C° 0 mm 3 mps 763 mmHg 76%

29 November, Sunday

Time Temperature Precipitation Wind Pressure Humidity
00:00 +13°C° 0 mm 3 mps 763 mmHg 77%
01:00 +13°C° 0 mm 3 mps 762 mmHg 78%
02:00 +12°C° 0 mm 3 mps 762 mmHg 78%
03:00 +12°C° 0 mm 3 mps 762 mmHg 79%
04:00 +12°C° 0 mm 3 mps 762 mmHg 79%
05:00 +12°C° 0 mm 3 mps 762 mmHg 80%
06:00 +13°C° 0 mm 3 mps 762 mmHg 77%
07:00 +14°C° 0 mm 2 mps 762 mmHg 74%
08:00 +15°C° 0 mm 2 mps 762 mmHg 72%
09:00 +17°C° 0 mm 2 mps 762 mmHg 65%
10:00 +18°C° 0 mm 2 mps 762 mmHg 59%
11:00 +21°C° 0 mm 1 mps 762 mmHg 52%
12:00 +20°C° 0 mm 2 mps 762 mmHg 51%
13:00 +20°C° 0 mm 2 mps 761 mmHg 49%
14:00 +20°C° 0 mm 2 mps 761 mmHg 48%
15:00 +19°C° 0 mm 2 mps 761 mmHg 55%
16:00 +17°C° 0 mm 2 mps 761 mmHg 63%
17:00 +16°C° 0 mm 2 mps 761 mmHg 70%
18:00 +16°C° 0 mm 2 mps 761 mmHg 69%
19:00 +15°C° 0 mm 2 mps 761 mmHg 69%
20:00 +15°C° 0 mm 1 mps 761 mmHg 68%
21:00 +15°C° 0 mm 1 mps 761 mmHg 66%
22:00 +14°C° 0 mm 1 mps 761 mmHg 63%
23:00 +14°C° 0 mm 1 mps 761 mmHg 61%

30 November, Monday

Time Temperature Precipitation Wind Pressure Humidity
00:00 +14°C° 0 mm 1 mps 761 mmHg 60%
01:00 +14°C° 0 mm 1 mps 761 mmHg 59%
02:00 +14°C° 0 mm 1 mps 761 mmHg 58%
03:00 +14°C° 0 mm 1 mps 761 mmHg 57%
04:00 +13°C° 0 mm 2 mps 761 mmHg 57%
05:00 +13°C° 0 mm 2 mps 760 mmHg 56%
06:00 +14°C° 0 mm 2 mps 761 mmHg 56%
07:00 +15°C° 0 mm 2 mps 761 mmHg 55%
08:00 +15°C° 0 mm 2 mps 761 mmHg 55%
09:00 +17°C° 0 mm 2 mps 761 mmHg 51%
10:00 +18°C° 0 mm 2 mps 761 mmHg 47%
11:00 +21°C° 0 mm 1 mps 760 mmHg 43%
12:00 +20°C° 0 mm 2 mps 760 mmHg 42%
13:00 +20°C° 0 mm 2 mps 760 mmHg 41%
14:00 +21°C° 0 mm 2 mps 759 mmHg 41%
15:00 +19°C° 0 mm 3 mps 759 mmHg 47%
16:00 +18°C° 0 mm 3 mps 759 mmHg 52%
17:00 +16°C° 0 mm 3 mps 759 mmHg 58%
18:00 +16°C° 0 mm 3 mps 760 mmHg 60%
19:00 +16°C° 0 mm 3 mps 760 mmHg 61%
20:00 +16°C° 0 mm 3 mps 760 mmHg 62%
21:00 +14°C° 0 mm 4 mps 760 mmHg 63%
22:00 +14°C° 0 mm 4 mps 760 mmHg 63%
23:00 +14°C° 0 mm 5 mps 759 mmHg 64%

1 December, Tuesday

Time Temperature Precipitation Wind Pressure Humidity
00:00 +14°C° 0 mm 5 mps 759 mmHg 64%
01:00 +14°C° 0 mm 5 mps 759 mmHg 64%
02:00 +14°C° 0 mm 6 mps 759 mmHg 65%
03:00 +13°C° 0 mm 6 mps 758 mmHg 66%
04:00 +13°C° 0 mm 6 mps 758 mmHg 67%
05:00 +12°C° 0 mm 7 mps 758 mmHg 68%
06:00 +12°C° 0 mm 7 mps 758 mmHg 68%
07:00 +12°C° 0 mm 7 mps 758 mmHg 69%
08:00 +14°C° 0 mm 7 mps 758 mmHg 69%
09:00 +15°C° 0 mm 7 mps 758 mmHg 65%
10:00 +16°C° 0 mm 7 mps 758 mmHg 62%
11:00 +17°C° 0 mm 6 mps 758 mmHg 58%
12:00 +19°C° 0 mm 6 mps 758 mmHg 56%
13:00 +19°C° 0 mm 6 mps 757 mmHg 53%
14:00 +20°C° 0 mm 6 mps 757 mmHg 51%
15:00 +19°C° 0 mm 6 mps 757 mmHg 53%
16:00 +17°C° 0 mm 6 mps 757 mmHg 55%
17:00 +16°C° 0 mm 7 mps 758 mmHg 57%
18:00 +16°C° 0 mm 6 mps 758 mmHg 59%
19:00 +16°C° 0 mm 6 mps 758 mmHg 60%
20:00 +15°C° 0 mm 6 mps 758 mmHg 62%
21:00 +15°C° 0 mm 6 mps 758 mmHg 63%
22:00 +15°C° 0 mm 6 mps 758 mmHg 64%
23:00 +14°C° 0 mm 6 mps 758 mmHg 66%
Show more